| ตารางข้อมูล | ค้นข้อมูล1 | ค้นข้อมูล2 | ค่าสูงสุด-ต่ำสุด |  

Select Sensor -->| 20402 | 4529A | 4529C | 4529D | 4529E | 4529F | 89M1A | 89M1B | หน้าจอย่อ | 4529 |
ข้อมูลรวม (ยังไม่ได้เลือก Sensor)

IDDate TimeRoom  Temp  Humidity RSSI Time
 1055683  2026-05-04 17:50:22  4529D  31.8 °C  69.8 %   17:50 
 1055682  2026-05-04 17:44:15  4529C  32.7 °C  55.0 %   17:44 
 1055681  2026-05-04 17:43:47  20402  31.0 °C  45.7 %   17:43 
 1055680  2026-05-04 17:43:44  89M1B  36.1 °C  60.7 %   17:43 
 1055679  2026-05-04 17:40:57  4529A  30.9 °C  42.3 %   17:40 
 1055678  2026-05-04 17:40:50  4529D  31.8 °C  69.7 %   17:40 
 1055677  2026-05-04 17:34:05  89M1B  35.9 °C  61.3 %   17:34 
 1055676  2026-05-04 17:34:02  4529C  32.7 °C  55.1 %   17:34 
 1055675  2026-05-04 17:33:37  20402  30.9 °C  45.6 %   17:33 
 1055674  2026-05-04 17:31:17  4529D  31.7 °C  69.5 %   17:31 
 1055673  2026-05-04 17:30:44  4529A  31.2 °C  43.9 %   17:30 
 1055672  2026-05-04 17:24:25  89M1B  35.1 °C  62.7 %   17:24 
 1055671  2026-05-04 17:23:50  4529C  32.7 °C  55.1 %   17:23 
 1055670  2026-05-04 17:23:28  20402  30.9 °C  45.4 %   17:23 
 1055669  2026-05-04 17:21:44  4529D  31.6 °C  69.5 %   17:21 
 1055668  2026-05-04 17:20:32  4529A  31.4 °C  45.8 %   17:20 
 1055667  2026-05-04 17:14:46  89M1B  35.6 °C  61.4 %   17:14 
 1055666  2026-05-04 17:13:35  4529C  32.7 °C  55.1 %   17:13 
 1055665  2026-05-04 17:13:18  20402  30.9 °C  45.4 %   17:13 
 1055664  2026-05-04 17:12:11  4529D  31.6 °C  69.6 %   17:12 
 1055663  2026-05-04 17:10:19  4529A  32.1 °C  47.6 %   17:10 
 1055662  2026-05-04 17:05:10  89M1B  35.3 °C  62.2 %   17:05 
 1055661  2026-05-04 17:03:22  4529C  32.6 °C  55.1 %   17:03 
 1055660  2026-05-04 17:03:06  20402  30.9 °C  45.0 %   17:03 
 1055659  2026-05-04 17:02:38  4529D  31.6 °C  70.6 %   17:02 
 1055658  2026-05-04 17:00:07  4529A  31.9 °C  47.8 %   17:00 
 1055657  2026-05-04 16:55:27  89M1B  35.2 °C  62.1 %   16:55 
 1055656  2026-05-04 16:53:08  4529C  32.6 °C  55.0 %   16:53 
 1055655  2026-05-04 16:53:05  4529D  31.5 °C  72.6 %   16:53 
 1055654  2026-05-04 16:52:56  20402  30.9 °C  44.9 %   16:52 
 1055653  2026-05-04 16:49:54  4529A  32.9 °C  51.4 %   16:49 
 1055652  2026-05-04 16:45:48  89M1B  35.4 °C  61.9 %   16:45 
 1055651  2026-05-04 16:43:32  4529D  31.5 °C  75.2 %   16:43 
 1055650  2026-05-04 16:42:55  4529C  32.6 °C  55.0 %   16:42 
 1055649  2026-05-04 16:42:46  20402  30.9 °C  44.9 %   16:42 
 1055648  2026-05-04 16:39:42  4529A  33.5 °C  55.7 %   16:39 
 1055647  2026-05-04 16:36:09  89M1B  35.5 °C  61.3 %   16:36 
 1055646  2026-05-04 16:33:59  4529D  31.5 °C  74.7 %   16:33 
 1055645  2026-05-04 16:32:41  4529C  32.6 °C  54.9 %   16:32 
 1055644  2026-05-04 16:32:34  20402  30.8 °C  44.5 %   16:32 
 1055643  2026-05-04 16:29:30  4529A  33.5 °C  55.9 %   16:29 
 1055642  2026-05-04 16:26:32  89M1B  36.1 °C  59.6 %   16:26 
 1055641  2026-05-04 16:24:26  4529D  31.5 °C  74.7 %   16:24 
 1055640  2026-05-04 16:22:28  4529C  32.5 °C  55.0 %   16:22 
 1055639  2026-05-04 16:22:24  20402  30.8 °C  44.3 %   16:22 
 1055638  2026-05-04 16:19:15  4529A  33.5 °C  55.7 %   16:19 
 1055637  2026-05-04 16:16:53  89M1B  35.6 °C  60.8 %   16:16 
 1055636  2026-05-04 16:14:54  4529D  31.5 °C  74.9 %   16:14 
 1055635  2026-05-04 16:12:16  4529C  32.5 °C  54.8 %   16:12 
 1055634  2026-05-04 16:12:15  20402  30.7 °C  44.1 %   16:12 
 1055633  2026-05-04 16:09:00  4529A  33.3 °C  55.5 %   16:09 
 1055632  2026-05-04 16:07:15  89M1B  35.6 °C  60.1 %   16:07 
 1055631  2026-05-04 16:05:21  4529D  31.4 °C  74.8 %   16:05 
 1055630  2026-05-04 16:02:05  20402  30.7 °C  43.8 %   16:02 
 1055629  2026-05-04 16:02:03  4529C  32.5 °C  54.8 %   16:02 
 1055628  2026-05-04 15:58:49  4529A  33.3 °C  55.4 %   15:58 
 1055627  2026-05-04 15:57:36  89M1B  35.4 °C  59.9 %   15:57 
 1055626  2026-05-04 15:55:48  4529D  31.4 °C  74.8 %   15:55 
 1055625  2026-05-04 15:51:55  20402  30.7 °C  43.5 %   15:51 
 1055624  2026-05-04 15:51:48  4529C  32.5 °C  54.5 %   15:51 
 1055623  2026-05-04 15:48:35  4529A  33.3 °C  55.4 %   15:48 
 1055622  2026-05-04 15:47:57  89M1B  35.6 °C  60.9 %   15:47 
 1055621  2026-05-04 15:46:16  4529D  31.4 °C  74.8 %   15:46 
 1055620  2026-05-04 15:41:45  20402  30.6 °C  43.3 %   15:41 
 1055619  2026-05-04 15:41:35  4529C  32.5 °C  54.5 %   15:41 
 1055618  2026-05-04 15:38:23  4529A  33.2 °C  55.3 %   15:38 
 1055617  2026-05-04 15:38:19  89M1B  35.8 °C  60.4 %   15:38 
 1055616  2026-05-04 15:36:43  4529D  31.3 °C  74.8 %   15:36 
 1055615  2026-05-04 15:31:35  20402  30.6 °C  42.9 %   15:31 
 1055614  2026-05-04 15:31:22  4529C  32.4 °C  54.3 %   15:31 
 1055613  2026-05-04 15:28:39  89M1B  35.4 °C  60.4 %   15:28 
 1055612  2026-05-04 15:28:12  4529A  33.2 °C  55.4 %   15:28 
 1055611  2026-05-04 15:27:09  4529D  31.3 °C  74.9 %   15:27 
 1055610  2026-05-04 15:21:25  20402  30.5 °C  42.5 %   15:21 
 1055609  2026-05-04 15:21:09  4529C  32.4 °C  54.3 %   15:21 
 1055608  2026-05-04 15:19:00  89M1B  35.5 °C  60.1 %   15:19 
 1055607  2026-05-04 15:18:00  4529A  33.2 °C  55.3 %   15:18 
 1055606  2026-05-04 15:17:36  4529D  31.3 °C  75.0 %   15:17 
 1055605  2026-05-04 15:11:15  20402  30.5 °C  42.1 %   15:11 
 1055604  2026-05-04 15:10:56  4529C  32.3 °C  54.1 %   15:10 
 1055603  2026-05-04 15:09:22  89M1B  35.5 °C  60.5 %   15:09 
 1055602  2026-05-04 15:08:03  4529D  31.3 °C  75.0 %   15:08 
 1055601  2026-05-04 15:07:48  4529A  33.1 °C  55.3 %   15:07 
 1055600  2026-05-04 15:01:06  20402  30.4 °C  41.7 %   15:01 
 1055599  2026-05-04 15:00:44  4529C  32.3 °C  53.8 %   15:00 
 1055598  2026-05-04 14:59:42  89M1B  35.4 °C  60.4 %   14:59 
 1055597  2026-05-04 14:58:30  4529D  31.3 °C  75.1 %   14:58 
 1055596  2026-05-04 14:57:37  4529A  33.1 °C  55.2 %   14:57 
 1055595  2026-05-04 14:50:56  20402  30.3 °C  41.4 %   14:50 
 1055594  2026-05-04 14:50:31  4529C  32.3 °C  53.8 %   14:50 
 1055593  2026-05-04 14:50:04  89M1B  35.4 °C  60.4 %   14:50 
 1055592  2026-05-04 14:48:57  4529D  31.2 °C  75.1 %   14:48 
 1055591  2026-05-04 14:47:25  4529A  33.0 °C  55.1 %   14:47 
 1055590  2026-05-04 14:40:47  20402  30.2 °C  41.3 %   14:40 
 1055589  2026-05-04 14:40:25  89M1B  35.6 °C  60.3 %   14:40 
 1055588  2026-05-04 14:40:18  4529C  32.3 °C  53.9 %   14:40 
 1055587  2026-05-04 14:39:24  4529D  31.1 °C  75.1 %   14:39 
 1055586  2026-05-04 14:37:13  4529A  32.9 °C  55.2 %   14:37 
 1055585  2026-05-04 14:30:46  89M1B  35.3 °C  63.3 %   14:30 
 1055584  2026-05-04 14:30:35  20402  29.8 °C  40.6 %   14:30 
 1055583  2026-05-04 14:30:06  4529C  32.3 °C  53.9 %   14:30 
 1055582  2026-05-04 14:29:52  4529D  31.1 °C  75.3 %   14:29 
 1055581  2026-05-04 14:27:01  4529A  32.8 °C  55.0 %   14:27 
 1055580  2026-05-04 14:21:06  89M1B  35.1 °C  63.5 %   14:21 
 1055579  2026-05-04 14:20:25  20402  29.1 °C  41.1 %   14:20 
 1055578  2026-05-04 14:20:18  4529D  31.1 °C  75.4 %   14:20 
 1055577  2026-05-04 14:19:51  4529C  32.2 °C  53.8 %   14:19 
 1055576  2026-05-04 14:16:49  4529A  32.8 °C  55.0 %   14:16 
 1055575  2026-05-04 14:11:27  89M1B  34.9 °C  63.9 %   14:11 
 1055574  2026-05-04 14:10:45  4529D  31.0 °C  75.4 %   14:10 
 1055573  2026-05-04 14:10:15  20402  27.9 °C  42.8 %   14:10 
 1055572  2026-05-04 14:09:37  4529C  32.1 °C  53.4 %   14:09 
 1055571  2026-05-04 14:06:35  4529A  32.7 °C  55.0 %   14:06 
 1055570  2026-05-04 14:01:48  89M1B  34.9 °C  64.4 %   14:01 
 1055569  2026-05-04 14:01:13  4529D  31.0 °C  75.5 %   14:01 
 1055568  2026-05-04 14:00:06  20402  28.2 °C  43.6 %   14:00 
 1055567  2026-05-04 13:59:25  4529C  32.1 °C  53.5 %   13:59 
 1055566  2026-05-04 13:56:23  4529A  32.6 °C  55.0 %   13:56 
 1055565  2026-05-04 13:52:09  89M1B  34.9 °C  64.6 %   13:52 
 1055564  2026-05-04 13:51:40  4529D  31.0 °C  75.6 %   13:51 
 1055563  2026-05-04 13:49:56  20402  28.6 °C  44.8 %   13:49 
 1055562  2026-05-04 13:49:11  4529C  32.0 °C  53.2 %   13:49 
 1055561  2026-05-04 13:46:11  4529A  32.5 °C  55.0 %   13:46 
 1055560  2026-05-04 13:42:30  89M1B  34.9 °C  64.8 %   13:42 
 1055559  2026-05-04 13:42:07  4529D  30.9 °C  75.6 %   13:42 
 1055558  2026-05-04 13:39:47  20402  28.6 °C  44.8 %   13:39 
 1055557  2026-05-04 13:38:59  4529C  31.9 °C  53.1 %   13:38 
 1055556  2026-05-04 13:35:59  4529A  32.5 °C  55.0 %   13:35 
 1055555  2026-05-04 13:32:50  89M1B  34.8 °C  64.9 %   13:32 
 1055554  2026-05-04 13:32:33  4529D  30.9 °C  75.7 %   13:32 
 1055553  2026-05-04 13:29:35  20402  30.1 °C  49.8 %   13:29 
 1055552  2026-05-04 13:28:47  4529C  31.9 °C  52.9 %   13:28 
 1055551  2026-05-04 13:25:47  4529A  32.5 °C  55.1 %   13:25 
 1055550  2026-05-04 13:23:12  89M1B  34.8 °C  64.7 %   13:23 
 1055549  2026-05-04 13:23:01  4529D  30.9 °C  75.9 %   13:23 
 1055548  2026-05-04 13:19:25  20402  31.0 °C  48.1 %   13:19 
 1055547  2026-05-04 13:18:34  4529C  31.9 °C  53.0 %   13:18 
 1055546  2026-05-04 13:15:36  4529A  32.4 °C  54.7 %   13:15 
 1055545  2026-05-04 13:13:33  89M1B  34.6 °C  65.1 %   13:13 
 1055544  2026-05-04 13:13:28  4529D  30.8 °C  75.9 %   13:13 
 1055543  2026-05-04 13:09:15  20402  30.9 °C  48.1 %   13:09 
 1055542  2026-05-04 13:08:20  4529C  31.8 °C  52.6 %   13:08 
 1055541  2026-05-04 13:05:24  4529A  32.3 °C  54.9 %   13:05 
 1055540  2026-05-04 13:03:55  4529D  30.7 °C  76.0 %   13:03 

Data every 20 minute.